This is the latest recevied weather packets stored in our database for station/object KGRR-WX. If no packets are shown the sender has not sent any weather packets the latest 10 day(s).
| Time | Temp. | Humidity | Pressure | Rain* | Wind** | Luminosity | Snow |
|---|---|---|---|---|---|---|---|
| 1777562106 | 7.78° C | 70% | 987.6 hPa | 0 mm | - | - | - |
| 1777561218 | 7.22° C | 70% | 987.6 hPa | 0 mm | - | - | - |
| 1777560306 | 6.67° C | 78% | 987 hPa | 0 mm | - | - | - |
| 1777559424 | 6.67° C | 80% | 988.3 hPa | 0 mm | - | - | - |
| 1777558506 | 5.56° C | 80% | 988.3 hPa | 0 mm | - | - | - |
| 1777557627 | 5.56° C | 80% | 988.3 hPa | 0 mm | - | - | - |
| 1777556706 | 5.56° C | 81% | 987.7 hPa | 0 mm | - | - | - |
| 1777555822 | 5.56° C | 81% | 987.7 hPa | 0 mm | - | - | - |
| 1777554905 | 5.56° C | 81% | 987.7 hPa | 0 mm | - | - | - |
| 1777554027 | 5° C | 81% | 987.7 hPa | 0 mm | - | - | - |
| 1777553106 | 5° C | 85% | 986.5 hPa | 0 mm | - | - | - |
| 1777552214 | 4.44° C | 88% | 987.4 hPa | 0 mm | - | - | - |
| 1777551306 | 3.89° C | 88% | 987.4 hPa | 0 mm | - | - | - |
| 1777550427 | 3.89° C | 88% | 987.4 hPa | 0 mm | - | - | - |
| 1777549506 | 3.33° C | 90% | 986.1 hPa | 0 mm | - | - | - |
| 1777548621 | 2.78° C | 91% | 986.8 hPa | 0 mm | - | - | - |
| 1777547704 | 2.22° C | 91% | 986.8 hPa | 0 mm | - | - | - |
| 1777546822 | 2.22° C | 91% | 986.8 hPa | 0 mm | - | - | - |
| 1777545904 | 2.22° C | 92% | 986.6 hPa | 0 mm | - | - | - |
| 1777545020 | 2.22° C | 92% | 987.3 hPa | 0 mm | - | - | - |
| 1777544105 | 2.22° C | 92% | 987.3 hPa | 0 mm | - | - | - |
| 1777543223 | 2.22° C | 92% | 987.5 hPa | 0 mm | - | - | - |
| 1777542304 | 2.22° C | 89% | 987.3 hPa | 0 mm | - | - | - |
| 1777541420 | 2.78° C | 89% | 987.3 hPa | 0 mm | - | - | - |
| 1777540505 | 2.78° C | 89% | 987.3 hPa | 0 mm | - | - | - |
* Rain latest hour (hover to see other rain measurements)
** Current wind speed in m/s (hover to see current wind gust speed)